Weather History for LICZ - November, 2012

Change the Weather History Date:

Sunday, November 18, 2012

  Actual Average Record
Temperature  
Mean Temperature 62 °F -  
Max Temperature 67 °F 65 °F 75 °F (1996)
Min Temperature 56 °F 46 °F 39 °F (1998)
Degree Days  
Heating Degree Days 4    
Growing Degree Days 12 (Base 50)    
Moisture  
Dew Point 59 °F    
Average Humidity 95    
Maximum Humidity 100    
Minimum Humidity 66    
Precipitation  
Precipitation 0.08 in 0.08 in - ()
Sea Level Pressure  
Sea Level Pressure 29.92 in    
Wind  
Wind Speed 3 mph ()    
Max Wind Speed 7 mph    
Max Gust Speed -    
Visibility 5.2 miles    
Events Rain    
Averages and records for this station are not official NWS values.
T = Trace of Precipitation, MM = Missing Value Source: Averaged Metar Reports

Daily Weather History Graph

Daily Weather History Graph

Search for Another Location

Airport or City:

Trip Planner

Search our weather history database for the weather conditions in past years. The results will help you decide how hot, cold, wet, or windy it might be!

Date:

Astronomy

Nov. 18, 2012 Rise Set
Actual Time 6:43 AM CET 4:47 PM CET
Civil Twilight 6:15 AM CET 5:15 PM CET
Nautical Twilight 5:43 AM CET 5:47 PM CET
Astronomical Twilight 5:12 AM CET 6:18 PM CET
Moon 10:59 AM CET (11/18) 9:45 PM CET (11/18)
Length of Visible Light 11h 00m
Length of Day
10h 04m
Waxing Crescent, 27% of the Moon is Illuminated
Nov 18
Waxing Crescent
Nov 20
First Quarter
Nov 28
Full
Dec 6
Last Quarter
Dec 13
New

Hourly Weather History & Observations

Time (CET) Temp. Dew Point Humidity Pressure Visibility Wind Dir Wind Speed Gust Speed Precip Events Conditions
12:55 AM 59.0 °F 59.0 °F 100% 29.95 in 6.2 mi WNW 3.5 mph - N/A   Mostly Cloudy
1:00 AM 59 °F 59 °F 98% 29.96 in 6 mi WNW 3.5 mph - -   Mostly Cloudy
1:55 AM 59.0 °F 59.0 °F 100% 29.95 in 3.7 mi WNW 3.5 mph - N/A Rain Light Rain
2:55 AM 57.2 °F 57.2 °F 100% 29.92 in 3.7 mi Calm Calm - N/A Rain Light Rain
3:55 AM 57.2 °F 57.2 °F 100% 29.92 in 4.3 mi South 2.3 mph - N/A   Mostly Cloudy
4:00 AM 58 °F 58 °F 100% 29.94 in 4 mi South 2.3 mph - -   Mist
4:55 AM 57.2 °F 57.2 °F 100% 29.92 in 3.7 mi SW 2.3 mph - N/A   Mostly Cloudy
5:55 AM 57.2 °F 57.2 °F 100% 29.92 in 4.3 mi NW 4.6 mph - N/A   Mostly Cloudy
6:55 AM 57.2 °F 57.2 °F 100% 29.92 in 5.0 mi West 4.6 mph - N/A   Mostly Cloudy
7:00 AM 56 °F 56 °F 100% 29.93 in 5 mi West 4.6 mph - -   Mist
7:55 AM 57.2 °F 57.2 °F 100% 29.92 in 5.0 mi WSW 4.6 mph - N/A   Mostly Cloudy
8:55 AM 57.2 °F 57.2 °F 100% 29.92 in 5.0 mi West 4.6 mph - N/A   Mostly Cloudy
9:55 AM 60.8 °F 60.8 °F 100% 29.92 in 5.0 mi WSW 4.6 mph - N/A   Mostly Cloudy
10:00 AM 61 °F 61 °F 100% 29.94 in 5 mi WSW 4.6 mph - -   Mist
10:55 AM 64.4 °F 59.0 °F 83% 29.92 in 6.2 mi WSW 3.5 mph - N/A   Scattered Clouds
11:55 AM 64.4 °F 59.0 °F 83% 29.92 in 6.2 mi SSW 1.2 mph - N/A   Scattered Clouds
12:55 PM 64.4 °F 57.2 °F 77% 29.89 in 6.2 mi NW 3.5 mph - N/A   Mostly Cloudy
1:00 PM 65 °F 56 °F 66% 29.90 in 6 mi NW 3.5 mph - -   Partly Cloudy
1:55 PM 64.4 °F 55.4 °F 73% 29.89 in 6.2 mi North 1.2 mph - N/A   Mostly Cloudy
2:55 PM 66.2 °F 59.0 °F 78% 29.89 in 6.2 mi Calm Calm - N/A   Mostly Cloudy
3:55 PM 62.6 °F 62.6 °F 100% 29.89 in 6.2 mi WNW 4.6 mph - N/A   Mostly Cloudy
4:00 PM 63 °F 62 °F 95% 29.89 in 6 mi WNW 4.6 mph - -   Partly Cloudy
4:55 PM 62.6 °F 60.8 °F 94% 29.89 in 6.2 mi WSW 6.9 mph - N/A   Mostly Cloudy
5:55 PM 62.6 °F 62.6 °F 100% 29.89 in 6.2 mi WNW 6.9 mph - N/A   Mostly Cloudy
6:55 PM 59.0 °F 59.0 °F 100% 29.92 in 5.0 mi WSW 3.5 mph - N/A Rain Light Rain
7:00 PM 59 °F 59 °F 100% 29.92 in 5 mi WSW 3.5 mph - - Rain Light Rain
7:55 PM 57.2 °F 57.2 °F 100% 29.92 in 5.0 mi Calm Calm - N/A Rain Light Rain
8:55 PM 59.0 °F 59.0 °F 100% 29.92 in 5.0 mi WNW 3.5 mph - N/A Rain Light Rain
9:55 PM 59.0 °F 59.0 °F 100% 29.92 in 5.0 mi North 2.3 mph - N/A Rain Light Rain
10:00 PM 59 °F 59 °F 100% 29.93 in 5 mi North 2.3 mph - - Rain Light Rain
10:55 PM 59.0 °F 59.0 °F 100% 29.89 in 5.0 mi ENE 3.5 mph - N/A Rain Light Rain
11:55 PM 57.2 °F 57.2 °F 100% 29.89 in 5.0 mi ESE 2.3 mph - N/A Rain Light Rain